Location: Rancho Del Sol Observatory
(38.7214°N, 120.6350°W)
Time: 19:57:46
(UTC-08:00)

A-11 Canister half - Pass Details

Date: 03 February 2020
Orbit: 1517 x 1683 km, 47.2° (Epoch: 18 February)

Event Time Altitude Azimuth Distance (km) Brightness Sun altitude
Rises 22:51:07 0° 268° (W) 4,779 11.9 -60.9°
Enters shadow 22:53:55 - 272° (W) 3,910 11.3 -61.3°
Reaches altitude 10° 22:54:22 10° 273° (W) 3,772 - -61.3°
Maximum altitude 23:03:39 54° 349° (N) 1,818 - -62.5°
Drops below altitude 10° 23:12:43 10° 66° (ENE) 3,684 - -63.6°
Sets 23:15:51 0° 71° (ENE) 4,662 - -64.0°
